Flag for U.S.A. Weather past 2 weeks in Buffalo, New York, U.S.A.

Now
63 °F

Partly sunny.


Feels Like: 63 °F
Forecast: 57 / 70 °F
Wind: 15 mph from Northwest

Location: Greater Buffalo International Airport

Current Time: Jul 28, 2014 at 9:03:29 PM

Latest Report: Jul 28, 2014 at 7:54 PM


Visibility: 10 mi

Pressure: 29.83 "Hg

Humidity: 63%

Dew point: 50 °F

Location of BuffaloLocation

Historic Weather in Buffalo — Graph

°F

Buffalo temperature yesterday

Maximum temperature yesterday: 81 °F (at 4:54 PM)
Minimum temperature yesterday: 66 °F (at 11:54 PM)
Average temperature yesterday: 74 °F

Past Weeks' High & Low Weather Summary

 TemperatureHumidityPressure
High83 °F (Jul 21, 3:54 PM)94% (Jul 28, 3:54 AM)30.25 "Hg (Jul 28, 3:54 AM)
Low54 °F (Jul 25, 4:54 AM)38% (Jul 24, 4:54 PM)29.56 "Hg (Jul 28, 4:54 AM)
Average69 °F69%29.95 "Hg
* Reported Jul 13 7:54 PM — Jul 28 7:54 PM, Buffalo, Weather by CustomWeather, © 2014

Note: Actual official high and low records may vary slightly from our data, if they occured in-between our weather recording intervals... More about our weather records

Advertising

Buffalo weather history for previous 24 hours

 ConditionsComfort  
Time TempWeatherWind HumidityBarometerVisibility
7:54 PM
Jul 28
63 °FPartly sunny.15 mph63%29.83 "Hg10 mi
6:54 PM66 °FPartly sunny.15 mph61%29.81 "Hg10 mi
5:54 PM65 °FMostly cloudy.13 mph68%29.79 "Hg10 mi
4:54 PM65 °FCloudy.6 mph73%29.77 "Hg10 mi
3:54 PM64 °FLow clouds.7 mph78%29.76 "Hg10 mi
2:54 PM62 °FLight rain. More clouds than sun.10 mph86%29.75 "Hg10 mi
1:54 PM60 °FLight rain. Mostly cloudy.10 mph90%29.73 "Hg10 mi
12:54 PM59 °FLight rain. Mostly cloudy.16 mph90%29.72 "Hg10 mi
11:54 AM59 °FLight rain. Low clouds.13 mph90%29.70 "Hg10 mi
10:54 AM61 °FLight rain. Low clouds.16 mph90%29.67 "Hg10 mi
9:54 AM61 °FRain. Fog.13 mph93%29.64 "Hg5 mi
9:04 AM62 °FLight rain. Fog.17 mph90%29.62 "Hg6 mi
8:54 AM62 °FHeavy rain. Fog.17 mph90%29.61 "Hg2 mi
7:54 AM63 °FHeavy rain. Fog.21 mph90%29.57 "Hg1 mi
6:54 AM64 °FMostly cloudy.14 mph90%29.57 "Hg10 mi
5:54 AM65 °FMostly cloudy.5 mph94%29.56 "Hg10 mi
4:54 AM65 °FLight rain. Fog.6 mph94%29.56 "Hg5 mi
3:54 AM65 °FLight rain. Mostly cloudy.5 mph94%29.57 "Hg7 mi
2:54 AM65 °FMostly cloudy.7 mph91%29.58 "Hg10 mi
1:54 AM65 °FMostly cloudy.6 mph91%29.59 "Hg9 mi
12:54 AM65 °FMostly cloudy.5 mph91%29.62 "Hg10 mi
11:54 PM
Jul 27
66 °FLight rain. Overcast.6 mph84%29.65 "Hg10 mi
10:54 PM70 °FThunderstorms. Overcast.14 mph73%29.63 "Hg9 mi
9:54 PM74 °FOvercast.8 mph69%29.59 "Hg10 mi
Weather by CustomWeather, © 2014

See weather overviewHow to use our weather pages